Regional Weather Roundup
Issued by NWS Burlington, VT

Home | Current Version | Previous Version | Text Only | Print | Product List | Glossary On
Versions: 1 2 3 4 5 6 7 8 9 10 11 12 13 14 15 16 17 18 19 20 21 22 23 24 25 26 27 28 29 30 31 32 33 34 35 36 37 38 39 40 41 42 43 44 45 46 47 48 49 50
000
ASUS41 KBTV 221530
RWRBTV
VERMONT REGIONAL WEATHER ROUNDUP
NATIONAL WEATHER SERVICE BURLINGTON VT
1100 AM EDT SAT JUL 22 2017

NOTE: "FAIR" INDICATES FEW OR NO CLOUDS BELOW 12,000 FEET WITH NO
SIGNIFICANT WEATHER AND/OR OBSTRUCTIONS TO VISIBILITY.

* THESE REPORTS ARE NOT UNDER NWS QUALITY CONTROL AND/OR DO NOT
  REPORT WEATHER SUCH AS PRECIPITATION AND FOG.

VTZ001>019-221600-
_____VERMONT_____


CITY           SKY/WX    TMP DP  RH WIND       PRES   REMARKS
BURLINGTON     PTSUNNY   75  61  61 NW8       29.89S
MONTPELIER     SUNNY     72  62  71 NW7       29.93F
MORRISVILLE    PTSUNNY   74  58  57 NE3       29.89F
ST. JOHNSBURY*   N/A     76  53  44 MISG      29.85F
LYNDONVILLE*   FAIR      74  57  54 W6        29.91R
MIDDLEBURY*    FAIR      75  62  64 S7        29.89S
RUTLAND*       CLOUDY    71  62  73 VRB3      29.91S
SPRINGFIELD    CLOUDY    73  61  65 E3        29.89F
HIGHGATE*      FAIR      71  57  61 NW5       29.90S
NEWPORT*       FAIR      68  58  69 NE3       29.90S
BENNINGTON     CLOUDY    72  61  68 CALM      29.92R
SUTTON*          N/A      0 N/A N/A MISG        N/A
ISLAND POND*     N/A     72 N/A N/A NW3         N/A
GALLUP MILLS*    N/A     73 N/A N/A MISG        N/A
UNION VILLAGE*   N/A     79 N/A N/A MISG        N/A
MT. MANSFIELD*   N/A     61 N/A N/A W14         N/A

_____LAKE CHAMPLAIN_____


CITY           SKY/WX    TMP DP  RH WIND       PRES   REMARKS
BURTON ISLAND*   N/A     72  55  56 N1          N/A
COLCHESTER RF*   N/A     68  59  73 N14         N/A
DIAMOND ISL*     N/A     68  61  77 N15         N/A

$$

NYZ007-026>031-035-052-083-087-221600-
_____NORTHERN NEW YORK_____


CITY           SKY/WX    TMP DP  RH WIND       PRES   REMARKS
PLATTSBURGH    MOSUNNY   70  57  63 NE9       29.90R
SARANAC LAKE   PTSUNNY   72  62  71 S3        29.90F
MASSENA        MOSUNNY   74  61  63 NE6       29.90R
OGDENSBURG*    FAIR      79  60  52 NE6       29.88S
POTSDAM*       SUNNY     75  66  73 NE3       29.89S
STARK FALLS*     N/A     73 N/A N/A S3          N/A
WATERTOWN      CLOUDY    73  66  78 S9        29.88S
FT DRUM        PTSUNNY   75  64  67 W6        29.88S
ALBANY         CLOUDY    76  61  59 SW5       29.90S
GLENS FALLS    PTSUNNY   73  63  70 S5        29.88F

$$
NHZ002-005-011-221600-
_____NEW HAMPSHIRE_____


CITY           SKY/WX    TMP DP  RH WIND       PRES   REMARKS
LEBANON        CLOUDY    76  63  64 S3        29.87F
KEENE          CLOUDY    73  62  68 CALM      29.90S
MT WASHINGTON  FOG       48  48 100 W35G40      N/A  VSB 1/16
PLYMOUTH       FAIR      77  62  60 CALM      29.86S
WHITEFIELD     PTSUNNY   77  56  48 W8        29.87F

$$

_____REGIONAL QUEBEC LOCATIONS_____


CITY           SKY/WX    TMP DP  RH WIND       PRES   REMARKS
MONTREAL       MOSUNNY   70  48  46 N7        29.91R
QUEBEC CITY    MOSUNNY   64  41  42 NW9       29.87F
SHERBROOKE     SUNNY     66  50  55 W6        29.89F

_____REGIONAL ONTARIO LOCATIONS_____


CITY           SKY/WX    TMP DP  RH WIND       PRES   REMARKS
OTTAWA         MOSUNNY   73  59  60 NE6       29.91R

______KEY______
VSB  - VISIBILITY IN MILES
WCI  - WIND CHILL INDEX
HX   - HEAT INDEX
$$
NNNN



USA.gov is the U.S. government's official web portal to all federal, state and local government web resources and services.